Starlink 11712

operational
NORAD ID: 64135 Int'l Des: 2025-111 Owner: SPXS Country: US Constellation: starlink
LEOCIRCULAR

About Starlink 11712

Description loading...

Live Position

Loading 3D Globe...

Upcoming Passes

Altitude History

Altitude vs Time

uPlot chart will show altitude changes over time

Two-Line Element Set

1 64135U 25111N 26095.51518264 .00278891 00000-0 21011-2 0 9995
2 64135 42.9994 172.5475 0001843 239.3767 120.6919 15.70882678 50850
Epoch: Apr 5, 2026 • Age: 11 hours

Current Status

Altitude 354.7 km
Velocity 7.70 km/s
Sub-Earth Point 1.25°N, 157.05°E
Launch Date May 24, 2025
Age 0.8 years
Type internet

Technical Details

Classification Payload
Mass 960.00 kg
Dry Mass 910.00 kg
Total Mass 960.00 kg
Length 0.30 m
Diameter 4.10 m
Span 29.00 m
Shape Box + pan
Manufacturer SPXS
Bus Type Starlink V2MD
Phase Status In Orbit
Owner/State SPXS/US

Large Constellations

Loading constellations...